Tracking 19242 objects as of 15-Aug-2018
HD Live streaming from Space Station
objects crossing your sky now

RADUGA 17

Track RADUGA 17 now!
RADUGA 17 is classified as:


NORAD ID: 16250
Int'l Code: 1985-107A
Perigee: 35,775.2 km
Apogee: 35,858.1 km
Inclination: 14.0 °
Period: 1,437.3 minutes
Semi major axis: 42187 km
RCS: 3.981 m2 (large)
Launch date: November 15, 1985
Source: Commonwealth of Independent States (former USSR) (CIS)
Launch site: TYURATAM MISSILE AND SPACE COMPLEX (TTMTR)
aabbcc
Your satellite tracking list
Your tracking list is empty




NASA's NSSDC Master Catalog

Two Line Element Set (TLE):
1 16250U 85107A   18226.60552494 -.00000089  00000-0  00000+0 0  9996
2 16250  13.9922 342.5940 0009825 161.2037 206.1058  1.00190251123112
Source of the keplerian elements: AFSPC